SP5IZJ-2 Weather Reports


Display with metric or nautical units.
time (UTC)temp
F
wind
direction
speed
MPH
gust
MPH
rain 1hr
in
rain 24hr
in
rain mn
in
humidity
%
barometer
mb
20260506164511 77 68 2.0 6.0 0.00 0.00 0.00 44 996.9
20260506163114 77 45 1.0 5.0 0.00 0.00 0.00 42 996.8
20260506162530 79 68 2.0 6.0 0.00 0.00 0.00 40 996.8
20260506162412 79 68 2.0 6.0 0.00 0.00 0.00 40 996.8
20260506161714 83 45 3.0 8.0 0.00 0.00 0.00 38 997.0
20260506161019 82 45 4.0 9.0 0.00 0.00 0.00 38 996.7
20260506154913 86 113 2.0 5.0 0.00 0.00 0.00 36 997.0
20260506152813 83 68 2.0 7.0 0.00 0.00 0.00 38 997.0
20260506141120 80 0 9.0 14.0 0.00 0.00 0.00 41 997.1
20260506132216 80 23 5.0 11.0 0.00 0.00 0.00 41 996.9
20260506131517 80 23 4.0 9.0 0.00 0.00 0.00 41 997.0
20260506125417 78 0 5.0 9.0 0.00 0.00 0.00 44 997.0
20260506121918 75 45 4.0 11.0 0.00 0.00 0.00 47 997.1
20260506121218 74 23 9.0 15.0 0.00 0.00 0.00 46 997.2
20260506113719 75 23 9.0 15.0 0.00 0.00 0.00 45 997.0
20260506113030 75 0 8.0 13.0 0.00 0.00 0.00 45 996.9
20260506111619 77 0 8.0 14.0 0.00 0.00 0.00 44 996.9
20260506102725 75 0 13.0 19.0 0.00 0.00 0.00 45 997.1
20260506095921 74 0 13.0 19.0 0.00 0.00 0.00 45 997.2
20260506094522 75 0 12.0 21.0 0.00 0.00 0.00 44 997.2
20260506093124 75 0 10.0 17.0 0.00 0.00 0.00 46 997.2
20260506092422 73 0 10.0 16.0 0.00 0.00 0.00 49 997.3
20260506091023 73 0 7.0 15.0 0.00 0.00 0.00 47 997.2
20260506084225 74 338 11.0 17.0 0.00 0.00 0.00 43 997.2
20260506083526 75 0 8.0 16.0 0.00 0.00 0.00 44 996.8
20260506082826 75 0 8.0 14.0 0.00 0.00 0.00 44 997.2
20260506082126 76 0 1.0 9.0 0.00 0.00 0.00 47 997.1
20260506072527 71 0 0.0 2.0 0.00 0.00 0.00 50 997.4
20260506060827 69 248 1.0 4.0 0.00 0.00 0.00 58 997.5
20260506043030 54 225 0.0 0.0 0.00 0.00 0.00 84 997.9
20260506041630 50 225 0.0 0.0 0.00 0.00 0.00 82 998.1
20260506040932 50 225 0.0 2.0 0.00 0.00 0.00 82 998.1
20260506035537 50 225 0.0 4.0 0.00 0.00 0.00 82 998.2
20260506034831 50 225 1.0 5.0 0.00 0.00 0.00 82 998.1
20260506034135 49 225 1.0 4.0 0.00 0.00 0.00 82 998.2
20260506033433 49 225 0.0 3.0 0.00 0.00 0.00 83 998.3
20260506032031 48 225 0.0 1.0 0.00 0.00 0.00 83 998.1
20260506031331 48 359 0.0 0.0 0.00 0.00 0.00 83 998.1
20260506030632 212 359 0.0 0.0 0.00 0.00 0.00 100
20260506024539 47 225 0.0 4.0 0.00 0.00 0.00 82 998.4
20260506023835 47 225 0.0 0.0 0.00 0.00 0.00 82 998.3
20260506022433 47 225 0.0 0.0 0.00 0.00 0.00 81 998.7
20260506021033 48 359 0.0 0.0 0.00 0.00 0.00 81 998.5
20260506020333 212 359 0.0 0.0 0.00 0.00 0.00 100
20260506015641 49 225 0.0 0.0 0.00 0.00 0.00 81 998.7
20260506015633 49 225 0.0 0.0 0.00 0.00 0.00 81 998.7
20260506014238 49 225 0.0 2.0 0.00 0.00 0.00 81 998.6
20260506013534 49 225 0.0 4.0 0.00 0.00 0.00 81 998.5
20260506012834 49 180 0.0 4.0 0.00 0.00 0.00 81 998.8
20260506012139 49 180 0.0 4.0 0.00 0.00 0.00 81 998.8
20260506011434 49 158 0.0 0.0 0.00 0.00 0.00 81 998.7
20260506010741 49 158 0.0 3.0 0.00 0.00 0.00 81 998.7
20260506003935 50 158 0.0 3.0 0.00 0.00 0.00 82 998.6
20260506002536 50 180 0.0 0.0 0.00 0.00 0.00 82 998.6
20260506001836 51 180 0.0 0.0 0.00 0.00 0.00 83 998.7
20260506001136 51 180 0.0 2.0 0.00 0.00 0.00 83 998.7
20260506000438 51 180 0.0 2.0 0.00 0.00 0.00 83 998.6
20260505235741 51 180 0.0 0.0 0.00 0.00 0.00 82 998.6
20260505235037 52 180 0.0 1.0 0.00 0.00 0.00 83 998.7
20260505234337 52 180 0.0 0.0 0.00 0.00 0.00 82 998.6
20260505233637 52 180 0.0 0.0 0.00 0.00 0.00 82 998.6
20260505232937 52 180 0.0 0.0 0.00 0.00 0.00 81 998.5
20260505232242 53 180 0.0 0.0 0.00 0.00 0.00 81 998.6
20260505231537 53 180 0.0 0.0 0.00 0.00 0.00 81 998.4
20260505230138 54 359 0.0 0.0 0.00 0.00 0.00 81 998.2
20260505225438 55 359 0.0 0.0 0.00 0.00 0.00 80 998.5
20260505224745 55 359 0.0 0.0 0.00 0.00 0.00 79 998.4
20260505224038 55 180 0.0 5.0 0.00 0.00 0.00 79 998.2
20260505223339 56 158 0.0 5.0 0.00 0.00 0.00 79 998.3
20260505222639 56 158 0.0 4.0 0.00 0.00 0.00 78 998.3
20260505221939 56 158 0.0 2.0 0.00 0.00 0.00 78 998.3
20260505220544 57 180 1.0 5.0 0.00 0.00 0.00 78 998.2
20260505215839 57 359 0.0 0.0 0.00 0.00 0.00 77 998.5
20260505214440 58 158 2.0 8.0 0.00 0.00 0.00 77 998.4
20260505213740 59 158 2.0 8.0 0.00 0.00 0.00 76 998.5
20260505212340 59 158 1.0 6.0 0.00 0.00 0.00 75 998.4
20260505205541 61 158 3.0 9.0 0.00 0.00 0.00 72 998.1
20260505204841 62 180 4.0 9.0 0.00 0.00 0.00 71 998.1
20260505204141 62 158 4.0 12.0 0.00 0.00 0.00 71 998.0
20260505203441 62 158 4.0 11.0 0.00 0.00 0.00 70 998.1
20260505202806 63 158 3.0 11.0 0.00 0.00 0.00 69 998.0
20260505202042 63 158 5.0 13.0 0.00 0.00 0.00 68 997.8
20260505194647 65 158 5.0 10.0 0.00 0.00 0.00 64 997.7
20260505194543 65 158 5.0 10.0 0.00 0.00 0.00 64 997.7
20260505193843 65 135 4.0 12.0 0.00 0.00 0.00 62 997.7
20260505192443 67 158 5.0 11.0 0.00 0.00 0.00 57 997.6
20260505191044 68 135 3.0 10.0 0.00 0.00 0.00 47 997.5
20260505190401 67 68 1.0 8.0 0.00 0.00 0.00 41 997.3
20260505185644 64 158 2.0 9.0 0.00 0.00 0.00 48 997.4
20260505184948 64 135 1.0 5.0 0.00 0.00 0.00 42 997.5
20260505184329 64 359 0.0 0.0 0.00 0.00 0.00 40 997.2
20260505183629 64 203 0.0 0.0 0.00 0.00 0.00 39 997.0
20260505182145 67 203 0.0 0.0 0.00 0.00 0.00 37 997.0
20260505181540 68 203 0.0 0.0 0.00 0.00 0.00 35 996.7
20260505181445 68 203 0.0 0.0 0.00 0.00 0.00 35 996.7
20260505180745 70 203 0.0 0.0 0.00 0.00 0.00 34 996.9
20260505180112 71 248 0.0 0.0 0.00 0.00 0.00 33 996.8
20260505174646 76 0 0.0 0.0 0.00 0.00 0.00 30 996.7
20260505173246 80 315 0.0 0.0 0.00 0.00 0.00 28 996.8
20260505172551 82 23 0.0 1.0 0.00 0.00 0.00 27 996.7
20260505171146 84 359 0.0 0.0 0.00 0.00 0.00 26 996.9
20260505170447 83 0 0.0 0.0 0.00 0.00 0.00 27 996.9
20260505165747 82 0 0.0 0.0 0.00 0.00 0.00 27 996.7